EHI
0 0 0 0 0 0 0 0 0 0 0 0 0 0 0 0 2 5 6 7 7 7 6 7 8 8 8 9 11 13 16 18 18 17 17 14 12 12 11 8 7 7 6 4
0 0 0 0 0 0 0 0 0 0 0 0 0 0 0 0 1 4 5 6 6 7 6 6 7 8 8 9 11 14 17 18 18 17 16 14 11 10 9 8 7 6 5 4
0 0 0 0 0 0 0 0 0 0 0 0 0 0 0 0 1 2 2 3 5 6 6 6 7 7 7 8 11 15 18 19 19 17 14 12 10 8 8 8 8 7 6 5
0 0 0 0 0 0 0 0 0 0 0 0 0 0 0 0 0 1 1 2 5 7 6 6 6 7 6 6 9 15 18 20 21 20 15 12 11 9 9 9 9 10 9 8
0 0 0 0 0 0 0 0 0 0 0 0 0 0 0 0 0 0 0 1 5 7 6 5 5 5 6 6 8 13 17 19 21 22 19 16 14 13 12 11 12 13 12 10
0 0 0 0 0 0 0 0 0 0 0 0 0 0 0 0 0 0 1 2 4 5 4 4 4 4 6 6 8 12 15 17 19 20 19 18 17 16 15 14 14 15 14 12
0 0 0 0 0 0 0 0 0 0 0 0 0 0 0 0 0 1 2 3 3 4 4 3 4 4 5 6 7 11 13 14 16 17 17 17 18 18 17 15 13 14 13 11
0 0 0 0 0 0 0 0 0 0 0 0 0 0 0 0 0 1 2 3 3 4 4 3 3 3 4 4 6 8 10 12 12 12 14 15 16 16 15 13 12 11 10 9
0 0 0 0 0 0 0 0 0 0 0 0 0 0 0 0 0 1 2 2 3 3 4 4 3 3 4 4 5 7 9 9 8 8 10 12 12 13 11 10 9 9 8 7
0 0 0 0 0 0 0 0 0 0 0 0 0 0 0 0 0 1 2 1 1 2 4 5 4 4 4 5 7 8 8 7 6 6 7 7 9 9 8 6 6 7 7 6
0 0 0 0 0 0 0 0 0 0 0 0 0 0 0 0 0 1 2 2 1 2 3 4 4 4 5 6 7 7 5 4 5 6 5 6 7 7 5 4 5 6 7 7
0 0 0 0 0 0 0 0 0 0 0 0 0 0 0 0 0 0 2 3 3 4 4 4 3 3 4 5 5 5 3 2 3 4 4 6 6 5 4 3 4 7 8 7
0 0 0 0 0 0 0 0 0 0 0 0 0 0 0 0 0 1 2 3 4 5 5 3 2 2 2 3 4 4 3 3 2 2 4 6 6 4 3 3 4 6 7 6
0 0 0 0 0 0 0 0 0 0 0 0 0 0 0 0 0 2 3 3 3 3 3 1 0 0 0 1 2 3 2 2 2 3 4 5 5 4 3 3 4 4 4 4
0 0 0 0 0 0 0 0 0 0 0 0 0 0 0 0 0 1 3 3 2 1 1 0 0 0 0 0 1 1 1 1 2 2 2 3 4 3 3 3 4 4 2 1
0 0 0 0 0 0 0 0 0 0 0 0 0 0 0 0 0 1 2 2 1 0 0 0 0 0 1 1 2 1 1 1 1 1 0 1 2 3 3 3 3 3 1 0
0 0 0 0 0 0 0 0 0 0 0 0 0 0 0 0 1 2 2 1 0 0 0 0 1 1 1 2 3 2 1 0 0 0 0 0 1 3 3 3 3 3 1 0
0 0 0 0 0 0 0 1 0 0 0 0 0 0 0 0 1 2 2 1 0 0 1 1 2 2 1 1 2 2 1 0 0 0 0 0 0 1 2 3 3 2 2 1
0 0 0 0 0 0 0 0 0 0 0 0 0 0 0 0 1 3 2 1 2 2 2 2 2 1 0 0 1 2 2 1 1 0 0 0 0 0 1 2 1 1 1 1
0 0 0 0 0 0 0 0 0 0 0 0 0 0 0 1 2 3 3 2 3 4 3 1 1 0 0 0 1 2 2 2 2 1 0 0 0 0 0 0 0 0 0 0
0 0 0 0 0 0 0 0 0 1 1 1 1 0 1 2 2 3 3 2 3 4 2 1 0 0 0 0 0 1 1 2 2 1 0 0 0 0 0 0 0 0 0 0
0 0 0 0 0 0 0 1 1 1 1 1 1 1 1 2 3 2 2 1 2 3 3 2 1 0 0 0 0 0 0 1 1 0 0 1 2 1 1 1 1 1 1 0
0 0 0 0 0 0 0 1 1 1 1 1 1 1 1 2 2 1 0 0 1 2 2 2 1 1 0 0 0 0 0 0 0 0 1 2 2 2 2 2 2 2 2 1
1 1 0 0 0 0 0 0 1 0 0 1 1 0 1 1 1 0 0 0 0 1 1 1 0 0 0 0 0 0 0 0 0 1 1 1 1 2 3 3 3 3 2 2
0 0 0 0 0 0 0 0 0 0 0 0 0 0 0 0 0 0 0 0 0 0 0 0 0 0 0 0 0 0 1 1 1 1 1 0 0 1 1 2 2 2 2 2
0 0 0 0 0 0 0 0 0 0 0 0 0 0 0 0 0 0 0 0 0 0 0 0 0 0 0 0 0 1 2 2 2 1 0 0 0 0 0 1 2 1 1 1
Wind_Speed
8 9 9 7 7 9 8 9 9 7 3 6 9 8 5 5 6 6 6 5 6 6 5 5 5 6 6 6 6 6 6 6 5 4 4 4 3 3 3 3 3 3 3 3
9 10 7 6 7 9 10 10 9 6 2 7 8 8 5 5 6 6 6 6 6 6 6 6 6 6 7 7 6 7 7 7 7 4 3 2 2 2 2 2 3 3 3 3
11 4 3 7 9 10 10 10 9 8 6 7 8 8 5 4 4 5 5 5 5 5 6 6 7 7 7 7 7 6 7 7 6 6 4 4 3 3 3 4 3 3 3 3
9 6 6 9 9 10 9 7 8 9 9 6 6 7 3 3 4 4 4 4 5 5 6 6 6 7 7 7 7 7 7 7 6 6 5 5 4 3 3 2 3 3 3 3
7 6 8 10 8 8 7 5 7 9 9 9 6 8 2 4 4 3 3 3 3 4 5 6 6 6 6 7 6 6 6 6 6 6 5 5 5 4 3 3 4 4 4 4
10 6 7 7 5 5 4 5 7 9 9 9 5 7 4 2 3 2 2 3 2 2 4 4 5 6 6 6 6 6 6 6 6 6 6 6 5 4 3 4 4 4 3 3
9 8 7 5 5 6 7 7 6 6 7 5 2 6 3 1 1 1 1 2 2 3 4 4 5 6 6 6 6 6 6 6 6 6 6 6 6 6 6 5 4 4 3 3
7 6 6 6 7 6 7 9 7 6 7 6 4 6 0 2 2 1 1 1 2 3 3 4 5 5 5 6 6 6 6 5 5 6 5 5 5 5 4 4 4 3 3 2
5 4 3 4 6 8 8 8 7 9 10 9 5 4 2 3 4 3 2 1 2 3 3 4 5 5 5 5 5 6 6 5 5 5 5 4 4 4 4 4 4 4 3 3
5 6 4 3 6 7 8 6 6 8 7 8 6 6 3 3 3 3 3 2 2 3 4 3 4 5 5 5 5 5 5 5 5 5 4 3 4 4 4 4 3 3 3 3
7 7 5 6 7 7 7 8 8 8 8 9 7 2 2 1 1 2 3 2 2 3 3 4 4 4 5 5 5 5 5 4 4 4 4 3 3 3 4 4 4 4 3 3
5 6 7 6 3 5 8 8 8 8 7 8 8 3 3 1 0 2 2 2 3 3 3 4 4 4 5 5 5 5 5 5 4 4 4 4 3 3 3 4 3 3 3 4
3 5 7 7 7 6 7 8 9 9 8 8 9 4 4 2 1 1 1 2 3 4 4 4 4 4 5 5 5 5 5 5 4 4 4 3 3 3 4 3 3 3 3 3
5 7 9 9 6 4 7 8 9 11 9 9 10 9 3 3 3 1 1 2 4 4 4 4 4 4 4 5 5 5 5 4 4 4 3 3 3 3 3 3 3 3 3 3
5 8 8 9 9 9 10 11 10 12 12 12 11 10 6 4 4 3 3 3 4 4 5 4 4 3 4 4 4 5 5 4 4 3 3 3 3 3 3 2 2 2 3 3
4 7 7 9 9 10 12 12 12 12 12 12 12 10 4 4 3 3 4 5 5 5 5 4 4 4 4 4 5 5 4 4 4 4 3 2 3 3 3 3 2 2 2 2
5 6 8 9 8 10 10 8 9 9 9 9 9 6 3 3 4 4 5 5 5 5 5 5 4 4 4 4 4 4 4 4 4 3 3 3 3 3 3 3 2 2 2 2
7 8 7 7 7 10 2 1 5 6 5 5 6 4 3 4 4 4 4 4 5 5 4 4 4 4 4 4 4 4 4 4 4 4 4 3 3 3 3 3 2 2 2 2
8 8 7 7 9 8 3 2 4 6 5 2 5 4 3 2 3 4 2 3 4 4 3 4 4 4 4 3 4 4 4 4 4 4 4 4 4 4 3 3 3 2 2 2
6 7 8 8 9 7 2 4 4 6 5 3 3 3 2 2 5 1 1 2 2 2 3 3 4 4 4 3 3 4 5 5 5 4 4 3 4 4 4 3 3 2 3 3
5 6 8 9 8 4 5 4 2 5 3 5 4 3 3 4 4 2 1 2 2 3 3 3 3 3 3 3 4 5 5 5 4 4 3 3 3 3 4 3 3 3 3 3
5 5 6 6 8 2 6 3 3 5 6 5 4 3 3 2 2 0 0 1 2 3 3 3 3 3 2 3 4 5 5 4 4 4 4 3 3 3 3 4 4 4 4 4
4 4 3 3 2 4 3 3 4 4 5 5 4 2 2 2 2 1 1 1 2 3 3 3 3 3 3 3 4 5 5 5 5 5 4 4 4 3 4 4 5 5 5 4
1 2 3 3 2 2 2 3 4 5 5 5 3 2 3 3 2 2 1 2 2 3 3 3 4 4 3 4 5 6 5 5 5 5 5 5 4 4 4 4 4 5 4 4
3 2 3 4 3 3 2 4 6 5 4 3 2 2 2 2 3 2 2 2 2 2 3 4 4 4 4 4 5 5 5 5 6 5 5 5 5 4 4 4 4 5 4 3
2 3 4 3 3 5 5 6 6 5 4 3 2 2 2 2 3 3 2 2 2 3 3 3 4 4 4 4 5 5 5 6 6 5 5 5 4 4 4 5 4 3 3 3
Wind_Direction
204 229 232 238 247 273 276 274 278 285 296 271 267 271 267 239 234 233 232 226 216 211 192 186 189 186 175 170 171 173 175 170 178 179 182 175 176 174 166 163 161 179 189 192
216 231 245 254 251 255 258 265 275 281 269 270 272 271 263 241 240 241 234 227 221 208 190 186 187 184 180 175 175 178 177 177 186 180 181 180 182 186 172 163 164 181 185 200
241 260 240 244 247 252 257 263 275 287 285 246 264 255 232 218 221 230 230 231 221 210 203 193 188 187 185 180 182 185 181 181 183 180 176 170 175 191 179 176 174 174 179 184
244 247 246 249 252 256 264 273 272 269 268 264 256 280 232 216 217 228 230 230 217 204 207 200 191 188 185 177 179 184 178 180 182 187 189 189 192 191 186 188 170 173 187 187
237 238 251 258 263 264 279 289 265 263 265 271 247 267 246 198 233 231 226 237 218 205 206 206 193 184 177 174 174 173 174 179 184 192 188 199 205 198 190 190 184 196 188 195
257 251 256 266 265 247 248 242 240 240 247 254 259 267 273 207 237 239 217 219 205 204 201 206 193 177 171 169 174 171 177 182 185 192 196 205 213 213 209 207 203 204 193 200
239 224 211 232 233 204 230 251 254 240 237 256 215 257 283 78 206 256 256 211 182 185 183 186 191 175 169 171 176 180 183 184 186 192 200 205 215 218 217 220 214 217 211 210
254 234 198 214 246 252 238 254 269 281 284 290 229 250 313 131 170 214 239 177 158 167 170 178 176 173 169 172 176 182 186 190 188 192 196 205 215 223 223 221 229 223 226 225
268 264 176 218 244 254 242 244 278 278 275 271 253 242 198 192 199 196 189 163 154 165 170 169 164 168 170 172 176 188 186 188 191 190 189 198 210 222 227 226 229 232 230 226
271 272 244 205 221 223 262 265 251 257 269 270 256 250 242 187 202 187 190 186 169 168 174 169 159 159 162 165 166 179 177 186 190 190 191 189 200 208 218 228 228 239 241 236
261 260 238 217 232 242 222 231 249 259 271 281 282 286 46 167 198 221 204 195 177 167 168 160 162 161 162 164 163 168 174 183 191 190 188 192 203 204 217 223 228 233 235 228
240 265 263 248 254 272 248 249 243 255 258 260 278 284 96 133 179 235 214 187 172 165 161 157 161 163 169 170 171 170 173 180 189 189 189 195 200 205 219 227 231 230 230 228
217 244 255 227 198 205 235 242 249 256 267 263 264 260 123 163 228 240 202 175 170 171 168 167 168 171 181 183 177 176 179 178 182 186 189 189 202 210 218 221 223 231 228 228
242 248 261 275 295 290 255 250 248 251 256 262 265 276 266 259 259 234 194 188 188 180 176 177 182 182 185 187 184 185 180 177 181 189 192 187 208 216 220 224 229 227 223 225
241 250 255 268 278 277 272 268 256 250 260 269 277 282 290 280 266 240 214 206 199 190 183 184 191 185 185 180 186 188 178 179 182 196 196 197 209 214 219 225 225 218 216 222
234 255 259 260 259 263 264 266 263 255 254 258 267 273 299 290 266 235 220 217 210 204 193 190 191 191 186 181 187 185 183 181 183 191 194 196 206 209 212 215 211 207 208 228
223 236 257 263 263 267 256 260 261 256 251 257 267 288 305 275 251 232 223 222 219 211 205 200 193 195 192 192 191 194 188 180 182 189 195 198 204 206 208 209 203 202 206 213
241 243 255 266 262 256 284 346 286 268 253 262 277 293 282 271 259 231 226 225 224 220 212 205 198 193 198 196 199 201 194 185 187 193 202 204 206 207 207 206 212 215 220 224
229 236 252 258 260 263 246 262 277 263 250 290 279 277 287 301 244 206 209 236 230 218 205 201 196 195 193 192 193 192 192 191 194 199 205 206 209 209 215 217 219 225 233 239
206 229 245 250 263 266 8 26 333 267 235 17 308 284 269 253 252 216 149 244 220 202 193 190 191 190 184 185 184 190 196 196 199 201 208 209 215 212 220 223 231 232 234 241
203 220 239 251 255 261 26 1 284 252 356 5 316 285 253 257 315 7 222 222 210 208 202 198 193 188 189 186 189 200 204 206 204 203 208 215 222 222 222 221 230 235 237 234
238 236 232 250 255 260 29 4 328 349 351 333 322 287 260 291 349 9 228 213 198 200 194 192 192 188 192 200 204 210 212 212 207 207 213 216 225 231 216 218 223 227 229 220
246 297 297 286 319 16 13 354 342 335 324 325 319 290 256 259 257 245 198 216 204 188 183 192 197 197 205 211 217 222 216 209 209 212 217 216 214 223 221 220 219 220 220 229
225 302 264 251 246 323 330 344 337 327 319 314 303 279 252 249 244 237 227 213 199 189 193 202 210 206 209 216 223 226 217 208 212 215 216 215 218 222 217 224 224 226 225 231
299 264 263 264 293 310 300 335 334 330 324 316 302 273 252 237 229 233 244 222 206 206 205 211 223 224 220 224 234 232 218 207 211 216 216 221 222 224 223 224 236 241 236 242
269 276 272 282 324 307 314 328 330 329 326 319 301 276 261 247 237 237 231 221 216 210 209 217 231 235 227 228 233 227 218 210 211 217 218 224 226 219 225 221 225 227 244 202